This demonstration page uses our WeatherBlox Daily Observations layout. Learn more.

Left ArrowRight Arrow

53.62937, 11.41316

Hourly Observations for January 8, 2016

Temp ( °F °C ) Dew Point ( °F °C ) Humidity (%) Winds ( mph kmh ) Pressure ( in mb ) Visibility ( mi km ) Precip ( " mm )
5:20 am 05:20 Mostly Cloudy with Light Rain 36 2 34 1 93 93 SSW 14 22 29.32 993 4 6 N/A
5:50 am 05:50 Mostly Cloudy with Light Rain 36 2 34 1 93 93 SSW 13 20 29.32 993 6 9 N/A
6:20 am 06:20 Mostly Cloudy 36 2 34 1 93 93 SW 15 24 29.32 993 30 48 N/A
6:50 am 06:50 Partly Cloudy 37 3 34 1 87 87 SW 15 24 29.32 993 30 48 N/A
7:20 am 07:20 Mostly Cloudy with Light Rain 37 3 34 1 87 87 SSW 16 26 29.32 993 30 48 N/A
7:50 am 07:50 Mostly Cloudy with Light Rain 37 3 36 2 93 93 SW 16 26 29.35 994 30 48 N/A
8:20 am 08:20 Mostly Cloudy 37 3 34 1 87 87 SW 15 24 29.35 994 30 48 N/A
8:50 am 08:50 Partly Cloudy 37 3 34 1 87 87 SSW 16 26 29.35 994 30 48 N/A
9:06 am 09:06 Mostly Cloudy with Light Rain 37 3 34 1 87 87 SSW 18 30 29.32 993 30 48 N/A
9:20 am 09:20 Mostly Cloudy with Light Rain 37 3 34 1 87 87 SSW 21 33 29.35 994 30 48 N/A
9:50 am 09:50 Mostly Cloudy with Light Rain 37 3 34 1 87 87 SSW 21 33 29.32 993 30 48 N/A
10:20 am 10:20 Mostly Cloudy with Drizzle 37 3 34 1 87 87 SSW 22 35 29.32 993 30 48 N/A
10:50 am 10:50 Mostly Cloudy with Light Rain 37 3 34 1 87 87 SW 21 33 29.35 994 5 8 N/A
11:20 am 11:20 Mostly Cloudy with Light Rain 37 3 34 1 87 87 SW 20 31 29.35 994 30 48 N/A
11:50 am 11:50 Cloudy with Drizzle 37 3 34 1 87 87 SW 24 39 29.35 994 30 48 N/A
12:20 pm 12:20 Cloudy with Drizzle 39 4 34 1 81 81 SW 23 37 29.32 993 30 48 N/A
12:50 pm 12:50 Cloudy 39 4 34 1 81 81 SW 22 35 29.32 993 30 48 N/A
1:20 pm 13:20 Cloudy with Drizzle 39 4 36 2 87 87 WSW 24 39 29.35 994 30 48 N/A
1:50 pm 13:50 Cloudy 39 4 36 2 87 87 SW 26 43 29.32 993 30 48 N/A
2:20 pm 14:20 Mostly Cloudy with Drizzle 37 3 36 2 93 93 WSW 23 37 29.35 994 5 8 N/A
2:50 pm 14:50 Cloudy 39 4 36 2 87 87 WSW 23 37 29.35 994 30 48 N/A
3:20 pm 15:20 Mostly Cloudy 39 4 36 2 87 87 W 22 35 29.38 995 30 48 N/A
3:50 pm 15:50 Mostly Cloudy 39 4 34 1 81 81 W 23 37 29.41 996 30 48 N/A
4:20 pm 16:20 Mostly Cloudy 37 3 34 1 87 87 W 24 39 29.41 996 30 48 N/A
4:50 pm 16:50 Mostly Cloudy 37 3 34 1 87 87 W 20 31 29.44 997 30 48 N/A
5:20 pm 17:20 Mostly Cloudy 37 3 32 0 81 81 W 20 31 29.47 998 30 48 N/A
5:50 pm 17:50 Mostly Cloudy 36 2 32 0 87 87 W 16 26 29.50 999 30 48 N/A

Powered by AerisWeather